MERIDIAN 8 (44453 NORAD) Tracking and Keplerian Element Data

This shows tracking and keplerian element data for the satellite.

Feedback or suggestion? Click here.




ElementValue
Catalog44453
NameMERIDIAN 8
Epoch Orbit32
Epoch Day227.60758741
Epoch Year2019
RAAN344.1964
Inclination62.7971
Eccentricity0.7213476
Argument of Perigee270.0663
Mean Anonmoly187.0068
Mean Motion2.0031705
Decay Rate8E-07
L11 44453U 19046A 19227.60758741 .00000080 00000-0 00000+0 0 9996
L22 44453 62.7971 344.1964 7213476 270.0663 187.0068 2.00317050 322

Live tracking and technical data element details for MERIDIAN 8 (NORAD 44453). MERIDIAN 8 can be tracked NOW for your location showing map with azimuth and elevation plus other details from your city location.

Track the satellite on the map from your city or location and see movement details for azimuth, elevation, latitude, longitude, range, height, and movement on the map or in text.







IsCatalogInMostPopularTable: catalog: 44453, numindb: 2
Update: records affected: 1



GetName: 44453 MERIDIAN 8

Hit Count: updated at: Wed, 21 Aug 2019 11:19:14 GMT